Bedford, Massachusetts, United States (01730)
Lat: 42.49N, Lon: 71.28W
Wx Zone: MAZ005
Local Info
Past Weather Observations for Wednesday, September 17, 2014

NOTE: This archive is for the closest National Weather Service station to Bedford. Information may differ from the station used for current weather conditions.

Click here for Long-term Archive

Time Weather Temperature Dewpoint Humidity Pressure Winds Precip Visibility
23:56
Clear
46°F / 8°C 45°F / 7°C 93% 29.95 in
(1014 mb)
Calm - 10SM
22:56
Clear
46°F / 8°C 45°F / 7°C 93% 29.95 in
(1014 mb)
Calm - 10SM
21:56
Clear
48°F / 9°C 45°F / 7°C 87% 29.98 in
(1015 mb)
Calm - 10SM
20:56
Clear
48°F / 9°C 46°F / 8°C 94% 29.98 in
(1015 mb)
Calm - 10SM
19:56
Clear
50°F / 10°C 46°F / 8°C 88% 29.98 in
(1015 mb)
Calm - 10SM
18:56
Clear
54°F / 12°C 48°F / 9°C 82% 29.98 in
(1015 mb)
Calm - 10SM
17:56
Clear
61°F / 16°C 45°F / 7°C 55% 29.95 in
(1014 mb)
Calm - 10SM
16:56
Partly Cloudy
66°F / 19°C 45°F / 7°C 46% 29.95 in
(1014 mb)
SSW 5.8 mph
(SSW 9 kph)
- 10SM
15:56
Partly Cloudy
68°F / 20°C 43°F / 6°C 40% 29.95 in
(1014 mb)
SW 4.6 mph
(SW 7 kph)
- 10SM
14:56
Partly Cloudy
70°F / 21°C 39°F / 4°C 33% 29.95 in
(1014 mb)
SW 8.1 mph
(SW 13 kph)
- 10SM
13:56
Mostly Cloudy
68°F / 20°C 41°F / 5°C 38% 29.95 in
(1014 mb)
S 4.6 mph
(S 7 kph)
- 10SM
12:56
Partly Cloudy
70°F / 21°C 45°F / 7°C 40% 29.95 in
(1014 mb)
SW 6.9 mph
(SW 11 kph)
- 10SM
11:56
Partly Cloudy
68°F / 20°C 46°F / 8°C 46% 29.98 in
(1015 mb)
SSW 5.8 mph
(SSW 9 kph)
- 10SM
10:56
Clear
64°F / 18°C 46°F / 8°C 52% 30.01 in
(1016 mb)
Variable 3.5 mph
(Variable 6 kph)
- 10SM
09:56
Clear
63°F / 17°C 52°F / 11°C 68% 30.01 in
(1016 mb)
Variable 4.6 mph
(Variable 7 kph)
- 10SM
08:56
Clear
61°F / 16°C 52°F / 11°C 72% 30.01 in
(1016 mb)
Calm - 10SM
07:56
Clear
55°F / 13°C 52°F / 11°C 88% 30.01 in
(1016 mb)
Calm - 10SM
06:56
Clear
48°F / 9°C 48°F / 9°C 100% 30.01 in
(1016 mb)
SSW 3.5 mph
(SSW 6 kph)
- 10SM
05:56
Clear
45°F / 7°C 43°F / 6°C 93% 30.01 in
(1016 mb)
Calm - 10SM
05:37
Clear
Fog And Mist
39°F / 4°C 39°F / 4°C 100% 30.01 in
(1016 mb)
SSW 3.5 mph
(SSW 6 kph)
- 4SM
05:28
Partly Cloudy
Fog And Mist
43°F / 6°C 43°F / 6°C 100% 30.01 in
(1016 mb)
Calm - 1 3/4SM
05:11
Partly Cloudy
Fog And Mist
41°F / 5°C 41°F / 5°C 100% 30.01 in
(1016 mb)
Calm - 4SM
04:56
Clear
43°F / 6°C 43°F / 6°C 100% 30.01 in
(1016 mb)
Calm - 10SM
04:32
Clear
Fog And Mist
43°F / 6°C 43°F / 6°C 100% 30.01 in
(1016 mb)
Calm - 3SM
04:22
Clear
Fog And Mist
43°F / 6°C 43°F / 6°C 100% 30.01 in
(1016 mb)
NW 3.5 mph
(NW 6 kph)
- 1 1/2SM
03:56
Partly Cloudy
Fog And Mist
43°F / 6°C 43°F / 6°C 100% 30.01 in
(1016 mb)
Calm - 6SM
03:54
Partly Cloudy
Fog And Mist
43°F / 6°C 43°F / 6°C 100% 30.01 in
(1016 mb)
SSW 3.5 mph
(SSW 6 kph)
- 6SM
03:47
Partly Cloudy
Fog And Mist
43°F / 6°C 43°F / 6°C 100% 30.01 in
(1016 mb)
Calm - 2 1/2SM
03:41
Mostly Cloudy
Fog And Mist
45°F / 7°C 45°F / 7°C 100% 30.01 in
(1016 mb)
Calm - 1 1/4SM
03:39
Obscured
Fog And Mist
45°F / 7°C 45°F / 7°C 100% 29.98 in
(1015 mb)
Calm - 3/4SM
03:26
Obscured
Fog
43°F / 6°C 43°F / 6°C 100% 29.98 in
(1015 mb)
Calm - 1/4SM
03:22
Obscured
Fog And Mist
43°F / 6°C 43°F / 6°C 100% 29.98 in
(1015 mb)
Calm - 1SM
03:04
Mostly Cloudy
Fog And Mist
43°F / 6°C 43°F / 6°C 100% 29.98 in
(1015 mb)
Calm - 6SM
03:01
Partly Cloudy
Fog And Mist
43°F / 6°C 43°F / 6°C 100% 29.98 in
(1015 mb)
Calm - 2SM
02:56
Obscured
Fog And Mist
43°F / 6°C 43°F / 6°C 100% 29.98 in
(1015 mb)
Calm - 1SM
02:54
Obscured
Fog And Mist
43°F / 6°C 43°F / 6°C 100% 29.98 in
(1015 mb)
Calm - 1SM
02:39
Clear
Fog And Mist
45°F / 7°C 43°F / 6°C 93% 29.98 in
(1015 mb)
Calm - 1 1/2SM
02:14
Partly Cloudy
Fog And Mist
45°F / 7°C 45°F / 7°C 100% 29.98 in
(1015 mb)
NW 3.5 mph
(NW 6 kph)
- 3SM
02:06
Partly Cloudy
Fog And Mist
43°F / 6°C 43°F / 6°C 100% 29.98 in
(1015 mb)
Calm - 1 3/4SM
02:02
Mostly Cloudy
Fog And Mist
43°F / 6°C 43°F / 6°C 100% 29.98 in
(1015 mb)
Calm - 2SM
01:56
Obscured
Fog
43°F / 6°C 43°F / 6°C 100% 29.98 in
(1015 mb)
Calm - 1/2SM
01:46
Obscured
Fog
45°F / 7°C 45°F / 7°C 100% 29.98 in
(1015 mb)
Calm - 1/4SM
01:32
Obscured
Fog
45°F / 7°C 45°F / 7°C 100% 29.98 in
(1015 mb)
Calm - 1/4SM
01:23
Obscured
Fog And Mist
45°F / 7°C 45°F / 7°C 100% 29.98 in
(1015 mb)
Calm - 3/4SM
01:04
Obscured
Fog
45°F / 7°C 45°F / 7°C 100% 29.98 in
(1015 mb)
Calm - 1/2SM
00:56
Obscured
Fog And Mist
45°F / 7°C 45°F / 7°C 100% 29.98 in
(1015 mb)
Calm - 3/4SM
00:53
Obscured
Fog And Mist
45°F / 7°C 45°F / 7°C 100% 29.98 in
(1015 mb)
Calm - 1SM
00:25
Partly Cloudy
Fog And Mist
46°F / 8°C 45°F / 7°C 93% 29.98 in
(1015 mb)
Calm - 3SM
00:22
Partly Cloudy
Fog And Mist
45°F / 7°C 45°F / 7°C 100% 29.98 in
(1015 mb)
Calm - 1 1/4SM
00:20
Obscured
Fog And Mist
46°F / 8°C 46°F / 8°C 100% 29.98 in
(1015 mb)
Calm - 3/4SM
00:13
Obscured
Fog
48°F / 9°C 46°F / 8°C 94% 29.98 in
(1015 mb)
Calm - 1/4SM
00:06
Obscured
Fog And Mist
46°F / 8°C 46°F / 8°C 100% 29.98 in
(1015 mb)
Calm - 1SM
00:02
Partly Cloudy
Fog And Mist
46°F / 8°C 46°F / 8°C 100% 29.98 in
(1015 mb)
Calm - 2 1/2SM
Time Weather Temperature Dewpoint Humidity Pressure Winds Precip Visibility


Weather for websites

WeatherForYou.com, LLC is not responsible for any damages or problems caused by this service. Current weather conditions are obtained from the closest station including government and personal stations which may have varying degrees of accuracy. Weather forecasts are derived from the NOAA NDFD. Like all things, this site belongs to Jesus Christ... He just trusts me to maintain it. If you have any questions or comments email webmaster@weatherforyou.com

Copyright © 2014, WeatherForYou.com LLC. All rights reserved.